Regional Weather Roundup
Issued by NWS

Home | Current Version | Previous Version | Graphics & Text | Print | Product List | Glossary On
Versions: 1 2 3 4 5 6 7 8 9 10 11 12 13 14 15 16 17 18 19 20 21 22 23 24 25 26 27 28 29 30 31 32 33 34 35 36 37 38 39 40 41 42 43 44 45 46 47 48 49 50
000
ASUS44 KMEG 251010
RWRTN
TENNESSEE HOURLY STATE WEATHER ROUNDUP
NATIONAL WEATHER SERVICE MEMPHIS TN
500 AM CDT MON JUL 25 2016

TNZ002-004-019-021-049-052-054-088>092-251100-
WEST TENNESSEE

CITY           SKY/WX    TMP DP  RH WIND       PRES   REMARKS
MEMPHIS INTL   CLEAR     80  75  84 SE6       29.99R
NWS MEMPHIS      N/A     76 N/A N/A MISG        N/A
JACKSON        CLEAR     74  74 100 CALM      30.00R
DYERSBURG      CLEAR     75  73  94 MISG      30.00R
UNION CITY     CLEAR     77  75  94 CALM      29.98F
PARIS          CLEAR     73  72  94 CALM      30.01S
LEXINGTON      CLEAR     73  73 100 CALM      30.01R
$$

TNZ008-025-027-028-033-062-065-066-251100-
NORTH MIDDLE TENNESSEE

CITY           SKY/WX    TMP DP  RH WIND       PRES   REMARKS
NASHVILLE      MOCLDY    76  73  91 S3        30.03S
CLARKSVILLE    CLEAR     76  73  91 S3        30.00F
SMYRNA         CLEAR     75  74  97 S5        30.05R
COOKEVILLE     CLEAR     73  73 100 CALM      30.06R
CROSSVILLE     CLEAR     70  69  97 CALM      30.12R FOG
$$

TNZ061-075-076-078-094-096-097-251100-
SOUTH MIDDLE TENNESSEE

CITY           SKY/WX    TMP DP  RH WIND       PRES   REMARKS
FAYETTEVILLE   CLEAR     73  73 100 CALM      30.05S
TULLAHOMA      CLEAR     72  70  94 CALM      30.07S
WINCHESTER     CLEAR     72  72 100 S3        30.07R
MCMINNVILLE    CLEAR     72  72 100 NW20G55   30.07R
COLUMBIA       CLEAR    N/A N/A N/A CALM      30.03R
SHELBYVILLE    CLEAR     73  73 100 CALM      30.06R
$$

TNZ017-018-042-046-047-251100-
NORTHEAST TENNESSEE

CITY           SKY/WX    TMP DP  RH WIND       PRES   REMARKS
TRI CITIES     PTCLDY    70  68  93 CALM      30.10R
ELIZABETHTON   PTCLDY    70  68  94 NE5       30.11R
$$

TNZ012-013-036-069-073-074-251100-
CENTRAL EAST TENNESSEE

CITY           SKY/WX    TMP DP  RH WIND       PRES   REMARKS
KNOXVILLE      PTCLDY    76  73  91 SW5       30.05R
OAK RIDGE      CLEAR     77  72  84 CALM      30.06S
GATLINBURG     CLEAR     72  68  88 CALM      30.06S
MORRISTOWN     PTCLDY    73  72  94 CALM      30.07S
$$

TNZ083-085-099-251100-
SOUTHEAST TENNESSEE

CITY           SKY/WX    TMP DP  RH WIND       PRES   REMARKS
CHATTANOOGA    PTCLDY    75  72  90 CALM      30.05R
$$

SKY/WX REPORTED AS FAIR MEANS FEW OR NO CLOUDS BELOW
12 THOUSAND FEET.




USA.gov is the U.S. government's official web portal to all federal, state and local government web resources and services.